Salalah Airport

Jump to: basic info | weather | frequencies | runways | comments

Related pages: nearby airports | nearby navaids | notams | map

Basic information (top)

Codes: SLL OOSA
Location: lon 17.038700, lat 54.091301, elev 73 ft / 22 m msl
Status: medium_airport
Scheduled airline service: yes
Links: Wikipedia Mobile

Weather (top)

Current conditions (rec'd 2014/09/02 03:50Z):

OOSA 020350Z VRB01KT 7000 SCT020 BKN025 27/24 Q1003 NOSIG RMK03 RH82

Airport forecast (rec'd 2014/09/01 00:00Z):

TAF OOSA 012310Z 0200/0306 18005KT 8000 FEW012 BKN025 
      BECMG 0206/0208 17010KT 9999 SCT025 
      BECMG 0215/0217 VRB03KT 8000 FEW012 BKN025

Frequencies (top)

Verify before use: may be inaccurate or out of date.

APP: 119.1 MHz (APP)
RDR: 119.1 MHz (RDR)
TWR: 118.2 MHz (TWR)

Runways (top)

07/25: 10,965 x 148 ft (3,342 x 45 m) — paved — lighted

17/35 [CLOSED]: 4,196 x 59 ft (1,279 x 18 m) — grass — not lighted

Latest comments (top)

No comments yet for Salalah Airport

More... (top)

See also NOTAMs and nearby airports and navaids, or visit the Salalah Airport page at the main OurAirports website..